Location: Newark
(54.6072°N, 2.8847°W)
Time: 03:34:10
(UTC+00:00)

ISS - Visible Passes

Search period start: 23 October 2019 00:00
Search period end: 02 November 2019 00:00
Orbit: 411 x 421 km, 51.6° (Epoch: 23 October)

Date Brightness Start Highest point End Pass type
(mag) Time Alt. Az. Time Alt. Az. Time Alt. Az.
27 Oct -1.2 05:35:28 10° SSW 05:37:52 18° SSE 05:40:15 10° ESE visible
28 Oct -1.0 04:47:47 10° S 04:49:29 13° SE 04:51:11 10° ESE visible
28 Oct -2.4 06:22:25 10° SW 06:25:33 36° SSE 06:28:41 10° E visible
29 Oct -2.1 05:34:21 12° SW 05:37:04 29° SSE 05:40:03 10° E visible
30 Oct -1.9 04:47:58 22° S 04:48:36 23° SSE 04:51:20 10° E visible
30 Oct -2.9 06:21:38 10° WSW 06:24:54 47° S 06:28:10 10° E visible
31 Oct -0.8 04:01:29 14° ESE 04:01:29 14° ESE 04:02:28 10° ESE visible
31 Oct -2.8 05:34:23 20° SW 05:36:20 42° SSE 05:39:33 10° E visible
01 Nov -2.6 04:47:50 35° SSE 04:47:50 35° SSE 04:50:55 10° E visible
01 Nov -3.1 06:20:56 10° WSW 06:24:14 51° S 06:27:30 10° ESE visible
